Location: Ar Ranvel
(48.3000°N, 4.8833°W)
Time: 04:39:35
(UTC+00:00)

Cosmos 2322 Rocket - Pass Details

Date: 24 October 2021
Orbit: 832 x 851 km, 71.0° (Epoch: 01 December)

Event Time Altitude Azimuth Distance (km) Brightness Sun altitude
Rises 21:34:00 0° 278° (W) 3,380 6.0 -42.3°
Reaches altitude 10° 21:38:20 10° 310° (NW) 2,453 5.2 -42.9°
Maximum altitude 21:40:20 12° 331° (NNW) 2,328 5.0 -43.1°
Enters shadow 21:41:58 11° 349° (NNW) 2,416 5.0 -43.3°
